Year,Month,Day,Hour,Minute,Value (Times are PST for temperature in C)
2015,09,11,00,00,13.60
2015,09,11,00,01,13.60
2015,09,11,00,02,13.60
2015,09,11,00,03,13.60
2015,09,11,00,04,13.60
2015,09,11,00,05,13.60
2015,09,11,00,06,13.60
2015,09,11,00,07,13.70
2015,09,11,00,08,13.70
2015,09,11,00,09,13.70
2015,09,11,00,10,13.70
2015,09,11,00,11,13.70
2015,09,11,00,12,13.70
2015,09,11,00,13,13.70
2015,09,11,00,14,13.70
2015,09,11,00,15,13.70
2015,09,11,00,16,13.70
2015,09,11,00,17,13.70
2015,09,11,00,18,13.70
2015,09,11,00,19,13.70
2015,09,11,00,20,13.70
2015,09,11,00,21,13.70
2015,09,11,00,22,13.70
2015,09,11,00,23,13.70
2015,09,11,00,24,13.70
2015,09,11,00,25,13.70
2015,09,11,00,26,13.70
2015,09,11,00,27,13.70
2015,09,11,00,28,13.70
2015,09,11,00,29,13.70
2015,09,11,00,30,13.70
2015,09,11,00,31,13.70
2015,09,11,00,32,13.70
2015,09,11,00,33,13.70
2015,09,11,00,34,13.70
2015,09,11,00,35,13.70
2015,09,11,00,36,13.60
2015,09,11,00,37,13.60
2015,09,11,00,38,13.60
2015,09,11,00,39,13.60
2015,09,11,00,40,13.60
2015,09,11,00,41,13.60
2015,09,11,00,42,13.60
2015,09,11,00,43,13.60
2015,09,11,00,44,13.60
2015,09,11,00,45,13.60
2015,09,11,00,46,13.60
2015,09,11,00,47,13.60
2015,09,11,00,48,13.70
2015,09,11,00,49,13.70
2015,09,11,00,50,13.70
2015,09,11,00,51,13.60
2015,09,11,00,52,13.60
2015,09,11,00,53,13.70
2015,09,11,00,54,13.70
2015,09,11,00,55,13.70
2015,09,11,00,56,13.70
2015,09,11,00,57,13.70
2015,09,11,00,58,13.70
2015,09,11,00,59,13.60
2015,09,11,01,00,13.60
2015,09,11,01,01,13.60
2015,09,11,01,02,13.50
2015,09,11,01,03,13.50
2015,09,11,01,04,13.50
2015,09,11,01,05,13.50
2015,09,11,01,06,13.40
2015,09,11,01,07,13.40
2015,09,11,01,08,13.40
2015,09,11,01,09,13.40
2015,09,11,01,10,13.40
2015,09,11,01,11,13.40
2015,09,11,01,12,13.40
2015,09,11,01,13,13.40
2015,09,11,01,14,13.30
2015,09,11,01,15,13.30
2015,09,11,01,16,13.30
2015,09,11,01,17,13.30
2015,09,11,01,18,13.30
2015,09,11,01,19,13.30
2015,09,11,01,20,13.30
2015,09,11,01,21,13.30
2015,09,11,01,22,13.30
2015,09,11,01,23,13.20
2015,09,11,01,24,13.20
2015,09,11,01,25,13.20
2015,09,11,01,26,13.20
2015,09,11,01,27,13.20
2015,09,11,01,28,13.20
2015,09,11,01,29,13.20
2015,09,11,01,30,13.20
2015,09,11,01,31,13.20
2015,09,11,01,32,13.20
2015,09,11,01,33,13.20
2015,09,11,01,34,13.20
2015,09,11,01,35,13.20
2015,09,11,01,36,13.20
2015,09,11,01,37,13.20
2015,09,11,01,38,13.20
2015,09,11,01,39,13.30
2015,09,11,01,40,13.30
2015,09,11,01,41,13.30
2015,09,11,01,42,13.30
2015,09,11,01,43,13.30
2015,09,11,01,44,13.40
2015,09,11,01,45,13.40
2015,09,11,01,46,13.40
2015,09,11,01,47,13.40
2015,09,11,01,48,13.40
2015,09,11,01,49,13.40
2015,09,11,01,50,13.40
2015,09,11,01,51,13.40
2015,09,11,01,52,13.40
2015,09,11,01,53,13.40
2015,09,11,01,54,13.40
2015,09,11,01,55,13.40
2015,09,11,01,56,13.40
2015,09,11,01,57,13.40
2015,09,11,01,58,13.40
2015,09,11,01,59,13.50
2015,09,11,02,00,13.50
2015,09,11,02,01,13.50
2015,09,11,02,02,13.50
2015,09,11,02,03,13.50
2015,09,11,02,04,13.50
2015,09,11,02,05,13.50
2015,09,11,02,06,13.50
2015,09,11,02,07,13.40
2015,09,11,02,08,13.40
2015,09,11,02,09,13.40
2015,09,11,02,10,13.40
2015,09,11,02,11,13.40
2015,09,11,02,12,13.40
2015,09,11,02,13,13.40
2015,09,11,02,14,13.30
2015,09,11,02,15,13.30
2015,09,11,02,16,13.30
2015,09,11,02,17,13.30
2015,09,11,02,18,13.30
2015,09,11,02,19,13.30
2015,09,11,02,20,13.30
2015,09,11,02,21,13.40
2015,09,11,02,22,13.40
2015,09,11,02,23,13.40
2015,09,11,02,24,13.40
2015,09,11,02,25,13.50
2015,09,11,02,26,13.50
2015,09,11,02,27,13.50
2015,09,11,02,28,13.50
2015,09,11,02,29,13.50
2015,09,11,02,30,13.50
2015,09,11,02,31,13.50
2015,09,11,02,32,13.50
2015,09,11,02,33,13.50
2015,09,11,02,34,13.50
2015,09,11,02,35,13.50
2015,09,11,02,36,13.40
2015,09,11,02,37,13.40
2015,09,11,02,38,13.40
2015,09,11,02,39,13.40
2015,09,11,02,40,13.40
2015,09,11,02,41,13.40
2015,09,11,02,42,13.40
2015,09,11,02,43,13.30
2015,09,11,02,44,13.30
2015,09,11,02,45,13.30
2015,09,11,02,46,13.20
2015,09,11,02,47,13.20
2015,09,11,02,48,13.20
2015,09,11,02,49,13.20
2015,09,11,02,50,13.20
2015,09,11,02,51,13.20
2015,09,11,02,52,13.20
2015,09,11,02,53,13.20
2015,09,11,02,54,13.20
2015,09,11,02,55,13.20
2015,09,11,02,56,13.20
2015,09,11,02,57,13.20
2015,09,11,02,58,13.10
2015,09,11,02,59,13.10
2015,09,11,03,00,13.10
2015,09,11,03,01,13.10
2015,09,11,03,02,13.10
2015,09,11,03,03,13.00
2015,09,11,03,04,13.00
2015,09,11,03,05,13.00
2015,09,11,03,06,12.90
2015,09,11,03,07,12.90
2015,09,11,03,08,12.90
2015,09,11,03,09,12.90
2015,09,11,03,10,12.80
2015,09,11,03,11,12.80
2015,09,11,03,12,12.80
2015,09,11,03,13,12.80
2015,09,11,03,14,12.80
2015,09,11,03,15,12.80
2015,09,11,03,16,12.80
2015,09,11,03,17,12.80
2015,09,11,03,18,12.80
2015,09,11,03,19,12.80
2015,09,11,03,20,12.80
2015,09,11,03,21,12.80
2015,09,11,03,22,12.80
2015,09,11,03,23,12.80
2015,09,11,03,24,12.80
2015,09,11,03,25,12.70
2015,09,11,03,26,12.70
2015,09,11,03,27,12.70
2015,09,11,03,28,12.70
2015,09,11,03,29,12.70
2015,09,11,03,30,12.70
2015,09,11,03,31,12.70
2015,09,11,03,32,12.70
2015,09,11,03,33,12.70
2015,09,11,03,34,12.70
2015,09,11,03,35,12.70
2015,09,11,03,36,12.70
2015,09,11,03,37,12.70
2015,09,11,03,38,12.70
2015,09,11,03,39,12.70
2015,09,11,03,40,12.70
2015,09,11,03,41,12.70
2015,09,11,03,42,12.80
2015,09,11,03,43,12.80
2015,09,11,03,44,12.90
2015,09,11,03,45,12.90
2015,09,11,03,46,12.90
2015,09,11,03,47,12.90
2015,09,11,03,48,12.90
2015,09,11,03,49,12.90
2015,09,11,03,50,12.90
2015,09,11,03,51,12.80
2015,09,11,03,52,12.80
2015,09,11,03,53,12.80
2015,09,11,03,54,12.80
2015,09,11,03,55,12.80
2015,09,11,03,56,12.80
2015,09,11,03,57,12.80
2015,09,11,03,58,12.80
2015,09,11,03,59,12.80
2015,09,11,04,00,12.80
2015,09,11,04,01,12.80
2015,09,11,04,02,12.80
2015,09,11,04,03,12.80
2015,09,11,04,04,12.80
2015,09,11,04,05,12.80
2015,09,11,04,06,12.90
2015,09,11,04,07,12.90
2015,09,11,04,08,12.90
2015,09,11,04,09,12.90
2015,09,11,04,10,12.90
2015,09,11,04,11,12.90
2015,09,11,04,12,12.90
2015,09,11,04,13,12.90
2015,09,11,04,14,12.90
2015,09,11,04,15,13.00
2015,09,11,04,16,13.00
2015,09,11,04,17,13.10
2015,09,11,04,18,13.10
2015,09,11,04,19,13.10
2015,09,11,04,20,13.10
2015,09,11,04,21,13.10
2015,09,11,04,22,13.10
2015,09,11,04,23,13.10
2015,09,11,04,24,13.10
2015,09,11,04,25,13.10
2015,09,11,04,26,13.10
2015,09,11,04,27,13.10
2015,09,11,04,28,13.10
2015,09,11,04,29,13.10
2015,09,11,04,30,13.10
2015,09,11,04,31,13.10
2015,09,11,04,32,13.10
2015,09,11,04,33,13.10
2015,09,11,04,34,13.10
2015,09,11,04,35,13.00
2015,09,11,04,36,13.00
2015,09,11,04,37,13.00
2015,09,11,04,38,13.00
2015,09,11,04,39,12.90
2015,09,11,04,40,12.90
2015,09,11,04,41,12.90
2015,09,11,04,42,12.90
2015,09,11,04,43,12.90
2015,09,11,04,44,12.90
2015,09,11,04,45,12.90
2015,09,11,04,46,12.90
2015,09,11,04,47,12.80
2015,09,11,04,48,12.80
2015,09,11,04,49,12.90
2015,09,11,04,50,12.90
2015,09,11,04,51,12.90
2015,09,11,04,52,12.90
2015,09,11,04,53,12.90
2015,09,11,04,54,12.90
2015,09,11,04,55,12.80
2015,09,11,04,56,12.80
2015,09,11,04,57,12.80
2015,09,11,04,58,12.80
2015,09,11,04,59,12.80
2015,09,11,05,00,12.80
2015,09,11,05,01,12.80
2015,09,11,05,02,12.90
2015,09,11,05,03,12.90
2015,09,11,05,04,12.90
2015,09,11,05,05,12.80
2015,09,11,05,06,12.80
2015,09,11,05,07,12.80
2015,09,11,05,08,12.80
2015,09,11,05,09,12.80
2015,09,11,05,10,12.70
2015,09,11,05,11,12.80
2015,09,11,05,12,12.80
2015,09,11,05,13,12.80
2015,09,11,05,14,12.80
2015,09,11,05,15,12.80
2015,09,11,05,16,12.80
2015,09,11,05,17,12.80
2015,09,11,05,18,12.80
2015,09,11,05,19,12.80
2015,09,11,05,20,12.80
2015,09,11,05,21,12.80
2015,09,11,05,22,12.80
2015,09,11,05,23,12.80
2015,09,11,05,24,12.70
2015,09,11,05,25,12.70
2015,09,11,05,26,12.70
2015,09,11,05,27,12.70
2015,09,11,05,28,12.70
2015,09,11,05,29,12.70
2015,09,11,05,30,12.70
2015,09,11,05,31,12.60
2015,09,11,05,32,12.60
2015,09,11,05,33,12.60
2015,09,11,05,34,12.60
2015,09,11,05,35,12.60
2015,09,11,05,36,12.60
2015,09,11,05,37,12.50
2015,09,11,05,38,12.50
2015,09,11,05,39,12.50
2015,09,11,05,40,12.40
2015,09,11,05,41,12.30
2015,09,11,05,42,12.30
2015,09,11,05,43,12.30
2015,09,11,05,44,12.30
2015,09,11,05,45,12.30
2015,09,11,05,46,12.20
2015,09,11,05,47,12.20
2015,09,11,05,48,12.20
2015,09,11,05,49,12.20
2015,09,11,05,50,12.20
2015,09,11,05,51,12.20
2015,09,11,05,52,12.10
2015,09,11,05,53,12.10
2015,09,11,05,54,12.10
2015,09,11,05,55,12.10
2015,09,11,05,56,12.10
2015,09,11,05,57,12.10
2015,09,11,05,58,12.10
2015,09,11,05,59,12.00
2015,09,11,06,00,12.10
2015,09,11,06,01,12.10
2015,09,11,06,02,12.10
2015,09,11,06,03,12.10
2015,09,11,06,04,12.20
2015,09,11,06,05,12.20
2015,09,11,06,06,12.20
2015,09,11,06,07,12.30
2015,09,11,06,08,12.30
2015,09,11,06,09,12.40
2015,09,11,06,10,12.40
2015,09,11,06,11,12.40
2015,09,11,06,12,12.50
2015,09,11,06,13,12.50
2015,09,11,06,14,12.60
2015,09,11,06,15,12.60
2015,09,11,06,16,12.60
2015,09,11,06,17,12.60
2015,09,11,06,18,12.70
2015,09,11,06,19,12.70
2015,09,11,06,20,12.70
2015,09,11,06,21,12.70
2015,09,11,06,22,12.70
2015,09,11,06,23,12.70
2015,09,11,06,24,12.70
2015,09,11,06,25,12.70
2015,09,11,06,26,12.70
2015,09,11,06,27,12.60
2015,09,11,06,28,12.60
2015,09,11,06,29,12.60
2015,09,11,06,30,12.60
2015,09,11,06,31,12.60
2015,09,11,06,32,12.50
2015,09,11,06,33,12.50
2015,09,11,06,34,12.40
2015,09,11,06,35,12.40
2015,09,11,06,36,12.40
2015,09,11,06,37,12.30
2015,09,11,06,38,12.30
2015,09,11,06,39,12.30
2015,09,11,06,40,12.20
2015,09,11,06,41,12.20
2015,09,11,06,42,12.20
2015,09,11,06,43,12.20
2015,09,11,06,44,12.20
2015,09,11,06,45,12.20
2015,09,11,06,46,12.10
2015,09,11,06,47,12.10
2015,09,11,06,48,12.10
2015,09,11,06,49,12.00
2015,09,11,06,50,12.00
2015,09,11,06,51,12.00
2015,09,11,06,52,12.00
2015,09,11,06,53,12.10
2015,09,11,06,54,12.10
2015,09,11,06,55,12.20
2015,09,11,06,56,12.20
2015,09,11,06,57,12.30
2015,09,11,06,58,12.30
2015,09,11,06,59,12.30
2015,09,11,07,00,12.30
2015,09,11,07,01,12.40
2015,09,11,07,02,12.40
2015,09,11,07,03,12.40
2015,09,11,07,04,12.40
2015,09,11,07,05,12.50
2015,09,11,07,06,12.50
2015,09,11,07,07,12.60
2015,09,11,07,08,12.60
2015,09,11,07,09,12.70
2015,09,11,07,10,12.70
2015,09,11,07,11,12.80
2015,09,11,07,12,12.80
2015,09,11,07,13,12.90
2015,09,11,07,14,12.90
2015,09,11,07,15,13.00
2015,09,11,07,16,13.10
2015,09,11,07,17,13.10
2015,09,11,07,18,13.10
2015,09,11,07,19,13.20
2015,09,11,07,20,13.30
2015,09,11,07,21,13.40
2015,09,11,07,22,13.50
2015,09,11,07,23,13.60
2015,09,11,07,24,13.70
2015,09,11,07,25,13.80
2015,09,11,07,26,13.90
2015,09,11,07,27,13.80
2015,09,11,07,28,13.80
2015,09,11,07,29,13.70
2015,09,11,07,30,13.60
2015,09,11,07,31,13.50
2015,09,11,07,32,13.50
2015,09,11,07,33,13.50
2015,09,11,07,34,13.50
2015,09,11,07,35,13.50
2015,09,11,07,36,13.60
2015,09,11,07,37,13.60
2015,09,11,07,38,13.60
2015,09,11,07,39,13.70
2015,09,11,07,40,13.70
2015,09,11,07,41,13.80
2015,09,11,07,42,13.90
2015,09,11,07,43,14.00
2015,09,11,07,44,14.10
2015,09,11,07,45,14.10
2015,09,11,07,46,14.20
2015,09,11,07,47,14.20
2015,09,11,07,48,14.30
2015,09,11,07,49,14.50
2015,09,11,07,50,14.50
2015,09,11,07,51,14.60
2015,09,11,07,52,14.70
2015,09,11,07,53,14.80
2015,09,11,07,54,14.80
2015,09,11,07,55,14.90
2015,09,11,07,56,15.00
2015,09,11,07,57,15.10
2015,09,11,07,58,15.10
2015,09,11,07,59,15.00
2015,09,11,08,00,15.00
2015,09,11,08,01,14.90
2015,09,11,08,02,14.90
2015,09,11,08,03,14.90
2015,09,11,08,04,14.90
2015,09,11,08,05,15.00
2015,09,11,08,06,15.10
2015,09,11,08,07,15.20
2015,09,11,08,08,15.30
2015,09,11,08,09,15.50
2015,09,11,08,10,15.60
2015,09,11,08,11,15.70
2015,09,11,08,12,15.80
2015,09,11,08,13,15.90
2015,09,11,08,14,16.00
2015,09,11,08,15,16.10
2015,09,11,08,16,16.20
2015,09,11,08,17,16.30
2015,09,11,08,18,16.40
2015,09,11,08,19,16.50
2015,09,11,08,20,16.60
2015,09,11,08,21,16.70
2015,09,11,08,22,16.70
2015,09,11,08,23,16.70
2015,09,11,08,24,16.70
2015,09,11,08,25,16.70
2015,09,11,08,26,16.70
2015,09,11,08,27,16.70
2015,09,11,08,28,16.60
2015,09,11,08,29,16.40
2015,09,11,08,30,16.30
2015,09,11,08,31,16.10
2015,09,11,08,32,15.90
2015,09,11,08,33,15.80
2015,09,11,08,34,15.70
2015,09,11,08,35,15.60
2015,09,11,08,36,15.50
2015,09,11,08,37,15.40
2015,09,11,08,38,15.40
2015,09,11,08,39,15.40
2015,09,11,08,40,15.40
2015,09,11,08,41,15.50
2015,09,11,08,42,15.50
2015,09,11,08,43,15.60
2015,09,11,08,44,15.70
2015,09,11,08,45,15.80
2015,09,11,08,46,15.90
2015,09,11,08,47,16.00
2015,09,11,08,48,16.10
2015,09,11,08,49,16.30
2015,09,11,08,50,16.40
2015,09,11,08,51,16.40
2015,09,11,08,52,16.60
2015,09,11,08,53,16.70
2015,09,11,08,54,16.80
2015,09,11,08,55,17.00
2015,09,11,08,56,17.20
2015,09,11,08,57,17.30
2015,09,11,08,58,17.50
2015,09,11,08,59,17.70
2015,09,11,09,00,17.80
2015,09,11,09,01,18.00
2015,09,11,09,02,18.20
2015,09,11,09,03,18.30
2015,09,11,09,04,18.40
2015,09,11,09,05,18.50
2015,09,11,09,06,18.70
2015,09,11,09,07,18.80
2015,09,11,09,08,18.80
2015,09,11,09,09,18.90
2015,09,11,09,10,19.00
2015,09,11,09,11,19.20
2015,09,11,09,12,19.20
2015,09,11,09,13,19.30
2015,09,11,09,14,19.40
2015,09,11,09,15,19.50
2015,09,11,09,16,19.60
2015,09,11,09,17,19.70
2015,09,11,09,18,19.80
2015,09,11,09,19,19.90
2015,09,11,09,20,20.00
2015,09,11,09,21,20.10
2015,09,11,09,22,20.20
2015,09,11,09,23,20.20
2015,09,11,09,24,20.30
2015,09,11,09,25,20.30
2015,09,11,09,26,20.30
2015,09,11,09,27,20.40
2015,09,11,09,28,20.40
2015,09,11,09,29,20.40
2015,09,11,09,30,20.40
2015,09,11,09,31,20.40
2015,09,11,09,32,20.40
2015,09,11,09,33,20.30
2015,09,11,09,34,20.30
2015,09,11,09,35,20.30
2015,09,11,09,36,20.30
2015,09,11,09,37,20.30
2015,09,11,09,38,20.30
2015,09,11,09,39,20.30
2015,09,11,09,40,20.30
2015,09,11,09,41,20.30
2015,09,11,09,42,20.30
2015,09,11,09,43,20.30
2015,09,11,09,44,20.30
2015,09,11,09,45,20.30
2015,09,11,09,46,20.30
2015,09,11,09,47,20.30
2015,09,11,09,48,20.30
2015,09,11,09,49,20.30
2015,09,11,09,50,20.30
2015,09,11,09,51,20.30
2015,09,11,09,52,20.30
2015,09,11,09,53,20.20
2015,09,11,09,54,20.20
2015,09,11,09,55,20.20
2015,09,11,09,56,20.20
2015,09,11,09,57,20.20
2015,09,11,09,58,20.10
2015,09,11,09,59,20.00
2015,09,11,10,00,20.00
2015,09,11,10,01,19.90
2015,09,11,10,02,19.90
2015,09,11,10,03,19.90
2015,09,11,10,04,19.90
2015,09,11,10,05,19.90
2015,09,11,10,06,19.90
2015,09,11,10,07,19.90
2015,09,11,10,08,19.80
2015,09,11,10,09,19.80
2015,09,11,10,10,19.80
2015,09,11,10,11,19.80
2015,09,11,10,12,19.80
2015,09,11,10,13,19.80
2015,09,11,10,14,19.80
2015,09,11,10,15,19.90
2015,09,11,10,16,19.90
2015,09,11,10,17,19.90
2015,09,11,10,18,19.90
2015,09,11,10,19,19.90
2015,09,11,10,20,19.90
2015,09,11,10,21,19.90
2015,09,11,10,22,19.90
2015,09,11,10,23,19.90
2015,09,11,10,24,19.90
2015,09,11,10,25,19.90
2015,09,11,10,26,19.90
2015,09,11,10,27,19.90
2015,09,11,10,28,19.90
2015,09,11,10,29,19.90
2015,09,11,10,30,19.90
2015,09,11,10,31,19.80
2015,09,11,10,32,19.80
2015,09,11,10,33,19.70
2015,09,11,10,34,19.70
2015,09,11,10,35,19.70
2015,09,11,10,36,19.60
2015,09,11,10,37,19.60
2015,09,11,10,38,19.60
2015,09,11,10,39,19.60
2015,09,11,10,40,19.60
2015,09,11,10,41,19.60
2015,09,11,10,42,19.60
2015,09,11,10,43,19.60
2015,09,11,10,44,19.60
2015,09,11,10,45,19.60
2015,09,11,10,46,19.60
2015,09,11,10,47,19.60
2015,09,11,10,48,19.70
2015,09,11,10,49,19.70
2015,09,11,10,50,19.70
2015,09,11,10,51,19.80
2015,09,11,10,52,19.80
2015,09,11,10,53,19.80
2015,09,11,10,54,19.80
2015,09,11,10,55,19.90
2015,09,11,10,56,19.90
2015,09,11,10,57,19.90
2015,09,11,10,58,19.90
2015,09,11,10,59,19.90
2015,09,11,11,00,19.90
2015,09,11,11,01,19.90
2015,09,11,11,02,19.90
2015,09,11,11,03,19.80
2015,09,11,11,04,19.80
2015,09,11,11,05,19.80
2015,09,11,11,06,19.80
2015,09,11,11,07,19.80
2015,09,11,11,08,19.80
2015,09,11,11,09,19.80
2015,09,11,11,10,19.80
2015,09,11,11,11,19.80
2015,09,11,11,12,19.80
2015,09,11,11,13,19.70
2015,09,11,11,14,19.70
2015,09,11,11,15,19.70
2015,09,11,11,16,19.70
2015,09,11,11,17,19.70
2015,09,11,11,18,19.70
2015,09,11,11,19,19.70
2015,09,11,11,20,19.70
2015,09,11,11,21,19.70
2015,09,11,11,22,19.70
2015,09,11,11,23,19.70
2015,09,11,11,24,19.70
2015,09,11,11,25,19.70
2015,09,11,11,26,19.70
2015,09,11,11,27,19.70
2015,09,11,11,28,19.70
2015,09,11,11,29,19.80
2015,09,11,11,30,19.80
2015,09,11,11,31,19.90
2015,09,11,11,32,19.90
2015,09,11,11,33,19.90
2015,09,11,11,34,19.90
2015,09,11,11,35,19.90
2015,09,11,11,36,19.90
2015,09,11,11,37,19.90
2015,09,11,11,38,19.90
2015,09,11,11,39,19.90
2015,09,11,11,40,19.90
2015,09,11,11,41,19.90
2015,09,11,11,42,19.90
2015,09,11,11,43,19.80
2015,09,11,11,44,19.80
2015,09,11,11,45,19.80
2015,09,11,11,46,19.80
2015,09,11,11,47,19.80
2015,09,11,11,48,19.80
2015,09,11,11,49,19.80
2015,09,11,11,50,19.80
2015,09,11,11,51,19.80
2015,09,11,11,52,19.80
2015,09,11,11,53,19.80
2015,09,11,11,54,19.80
2015,09,11,11,55,19.90
2015,09,11,11,56,19.90
2015,09,11,11,57,19.90
2015,09,11,11,58,19.90
2015,09,11,11,59,19.90
2015,09,11,12,00,19.90
2015,09,11,12,01,20.00
2015,09,11,12,02,20.00
2015,09,11,12,03,20.00
2015,09,11,12,04,20.00
2015,09,11,12,05,20.10
2015,09,11,12,06,20.10
2015,09,11,12,07,20.10
2015,09,11,12,08,20.10
2015,09,11,12,09,20.10
2015,09,11,12,10,20.10
2015,09,11,12,11,20.10
2015,09,11,12,12,20.10
2015,09,11,12,13,20.10
2015,09,11,12,14,20.10
2015,09,11,12,15,20.10
2015,09,11,12,16,20.10
2015,09,11,12,17,20.20
2015,09,11,12,18,20.20
2015,09,11,12,19,20.20
2015,09,11,12,20,20.20
2015,09,11,12,21,20.20
2015,09,11,12,22,20.20
2015,09,11,12,23,20.30
2015,09,11,12,24,20.30
2015,09,11,12,25,20.30
2015,09,11,12,26,20.30
2015,09,11,12,27,20.30
2015,09,11,12,28,20.30
2015,09,11,12,29,20.30
2015,09,11,12,30,20.30
2015,09,11,12,31,20.30
2015,09,11,12,32,20.30
2015,09,11,12,33,20.30
2015,09,11,12,34,20.30
2015,09,11,12,35,20.30
2015,09,11,12,36,20.20
2015,09,11,12,37,20.20
2015,09,11,12,38,20.20
2015,09,11,12,39,20.20
2015,09,11,12,40,20.20
2015,09,11,12,41,20.20
2015,09,11,12,42,20.20
2015,09,11,12,43,20.30
2015,09,11,12,44,20.30
2015,09,11,12,45,20.30
2015,09,11,12,46,20.30
2015,09,11,12,47,20.30
2015,09,11,12,48,20.30
2015,09,11,12,49,20.30
2015,09,11,12,50,20.40
2015,09,11,12,51,20.40
2015,09,11,12,52,20.40
2015,09,11,12,53,20.40
2015,09,11,12,54,20.40
2015,09,11,12,55,20.40
2015,09,11,12,56,20.40
2015,09,11,12,57,20.40
2015,09,11,12,58,20.40
2015,09,11,12,59,20.50
2015,09,11,13,00,20.50
2015,09,11,13,01,20.50
2015,09,11,13,02,20.50
2015,09,11,13,03,20.60
2015,09,11,13,04,20.60
2015,09,11,13,05,20.60
2015,09,11,13,06,20.60
2015,09,11,13,07,20.60
2015,09,11,13,08,20.60
2015,09,11,13,09,20.70
2015,09,11,13,10,20.70
2015,09,11,13,11,20.70
2015,09,11,13,12,20.70
2015,09,11,13,13,20.70
2015,09,11,13,14,20.70
2015,09,11,13,15,20.70
2015,09,11,13,16,20.70
2015,09,11,13,17,20.70
2015,09,11,13,18,20.70
2015,09,11,13,19,20.80
2015,09,11,13,20,20.80
2015,09,11,13,21,20.80
2015,09,11,13,22,20.80
2015,09,11,13,23,20.80
2015,09,11,13,24,20.80
2015,09,11,13,25,20.80
2015,09,11,13,26,20.80
2015,09,11,13,27,20.80
2015,09,11,13,28,20.80
2015,09,11,13,29,20.80
2015,09,11,13,30,20.80
2015,09,11,13,31,20.80
2015,09,11,13,32,20.80
2015,09,11,13,33,20.80
2015,09,11,13,34,20.80
2015,09,11,13,35,20.80
2015,09,11,13,36,20.80
2015,09,11,13,37,20.80
2015,09,11,13,38,20.80
2015,09,11,13,39,20.80
2015,09,11,13,40,20.80
2015,09,11,13,41,20.80
2015,09,11,13,42,20.70
2015,09,11,13,43,20.70
2015,09,11,13,44,20.70
2015,09,11,13,45,20.70
2015,09,11,13,46,20.70
2015,09,11,13,47,20.70
2015,09,11,13,48,20.70
2015,09,11,13,49,20.70
2015,09,11,13,50,20.70
2015,09,11,13,51,20.80
2015,09,11,13,52,20.80
2015,09,11,13,53,20.80
2015,09,11,13,54,20.80
2015,09,11,13,55,20.80
2015,09,11,13,56,20.80
2015,09,11,13,57,20.80
2015,09,11,13,58,20.80
2015,09,11,13,59,20.80
2015,09,11,14,00,20.80
2015,09,11,14,01,20.80
2015,09,11,14,02,20.80
2015,09,11,14,03,20.90
2015,09,11,14,04,20.90
2015,09,11,14,05,20.90
2015,09,11,14,06,20.90
2015,09,11,14,07,20.90
2015,09,11,14,08,20.90
2015,09,11,14,09,20.90
2015,09,11,14,10,21.00
2015,09,11,14,11,21.00
2015,09,11,14,12,21.00
2015,09,11,14,13,21.00
2015,09,11,14,14,21.00
2015,09,11,14,15,21.10
2015,09,11,14,16,21.10
2015,09,11,14,17,21.10
2015,09,11,14,18,21.10
2015,09,11,14,19,21.10
2015,09,11,14,20,21.20
2015,09,11,14,21,21.20
2015,09,11,14,22,21.20
2015,09,11,14,23,21.20
2015,09,11,14,24,21.20
2015,09,11,14,25,21.20
2015,09,11,14,26,21.30
2015,09,11,14,27,21.30
2015,09,11,14,28,21.30
2015,09,11,14,29,21.30
2015,09,11,14,30,21.30
2015,09,11,14,31,21.40
2015,09,11,14,32,21.40
2015,09,11,14,33,21.40
2015,09,11,14,34,21.50
2015,09,11,14,35,21.50
2015,09,11,14,36,21.50
2015,09,11,14,37,21.50
2015,09,11,14,38,21.50
2015,09,11,14,39,21.50
2015,09,11,14,40,21.50
2015,09,11,14,41,21.50
2015,09,11,14,42,21.50
2015,09,11,14,43,21.50
2015,09,11,14,44,21.50
2015,09,11,14,45,21.50
2015,09,11,14,46,21.50
2015,09,11,14,47,21.50
2015,09,11,14,48,21.50
2015,09,11,14,49,21.50
2015,09,11,14,50,21.60
2015,09,11,14,51,21.60
2015,09,11,14,52,21.60
2015,09,11,14,53,21.60
2015,09,11,14,54,21.60
2015,09,11,14,55,21.70
2015,09,11,14,56,21.70
2015,09,11,14,57,21.70
2015,09,11,14,58,21.80
2015,09,11,14,59,21.80
2015,09,11,15,00,21.80
2015,09,11,15,01,21.80
2015,09,11,15,02,21.90
2015,09,11,15,03,21.90
2015,09,11,15,04,21.90
2015,09,11,15,05,21.90
2015,09,11,15,06,22.00
2015,09,11,15,07,22.00
2015,09,11,15,08,22.00
2015,09,11,15,09,22.00
2015,09,11,15,10,22.00
2015,09,11,15,11,22.10
2015,09,11,15,12,22.10
2015,09,11,15,13,22.10
2015,09,11,15,14,22.10
2015,09,11,15,15,22.20
2015,09,11,15,16,22.20
2015,09,11,15,17,22.20
2015,09,11,15,18,22.20
2015,09,11,15,19,22.20
2015,09,11,15,20,22.30
2015,09,11,15,21,22.30
2015,09,11,15,22,22.30
2015,09,11,15,23,22.30
2015,09,11,15,24,22.30
2015,09,11,15,25,22.40
2015,09,11,15,26,22.40
2015,09,11,15,27,22.40
2015,09,11,15,28,22.40
2015,09,11,15,29,22.40
2015,09,11,15,30,22.40
2015,09,11,15,31,22.50
2015,09,11,15,32,22.50
2015,09,11,15,33,22.50
2015,09,11,15,34,22.60
2015,09,11,15,35,22.60
2015,09,11,15,36,22.60
2015,09,11,15,37,22.60
2015,09,11,15,38,22.60
2015,09,11,15,39,22.60
2015,09,11,15,40,22.60
2015,09,11,15,41,22.70
2015,09,11,15,42,22.70
2015,09,11,15,43,22.70
2015,09,11,15,44,22.70
2015,09,11,15,45,22.70
2015,09,11,15,46,22.70
2015,09,11,15,47,22.80
2015,09,11,15,48,22.80
2015,09,11,15,49,22.80
2015,09,11,15,50,22.80
2015,09,11,15,51,22.90
2015,09,11,15,52,22.90
2015,09,11,15,53,22.90
2015,09,11,15,54,22.90
2015,09,11,15,55,22.90
2015,09,11,15,56,22.90
2015,09,11,15,57,22.90
2015,09,11,15,58,23.00
2015,09,11,15,59,23.00
2015,09,11,16,00,23.00
2015,09,11,16,01,23.00
2015,09,11,16,02,23.00
2015,09,11,16,03,23.00
2015,09,11,16,04,23.00
2015,09,11,16,05,23.00
2015,09,11,16,06,23.00
2015,09,11,16,07,23.00
2015,09,11,16,08,23.00
2015,09,11,16,09,23.00
2015,09,11,16,10,23.00
2015,09,11,16,11,23.00
2015,09,11,16,12,23.10
2015,09,11,16,13,23.10
2015,09,11,16,14,23.10
2015,09,11,16,15,23.10
2015,09,11,16,16,23.10
2015,09,11,16,17,23.10
2015,09,11,16,18,23.10
2015,09,11,16,19,23.10
2015,09,11,16,20,23.10
2015,09,11,16,21,23.10
2015,09,11,16,22,23.10
2015,09,11,16,23,23.20
2015,09,11,16,24,23.20
2015,09,11,16,25,23.20
2015,09,11,16,26,23.20
2015,09,11,16,27,23.20
2015,09,11,16,28,23.20
2015,09,11,16,29,23.20
2015,09,11,16,30,23.20
2015,09,11,16,31,23.20
2015,09,11,16,32,23.20
2015,09,11,16,33,23.20
2015,09,11,16,34,23.20
2015,09,11,16,35,23.20
2015,09,11,16,36,23.20
2015,09,11,16,37,23.10
2015,09,11,16,38,23.10
2015,09,11,16,39,23.10
2015,09,11,16,40,23.10
2015,09,11,16,41,23.10
2015,09,11,16,42,23.10
2015,09,11,16,43,23.10
2015,09,11,16,44,23.10
2015,09,11,16,45,23.10
2015,09,11,16,46,23.10
2015,09,11,16,47,23.10
2015,09,11,16,48,23.10
2015,09,11,16,49,23.10
2015,09,11,16,50,23.10
2015,09,11,16,51,23.10
2015,09,11,16,52,23.10
2015,09,11,16,53,23.00
2015,09,11,16,54,23.00
2015,09,11,16,55,23.00
2015,09,11,16,56,22.90
2015,09,11,16,57,22.90
2015,09,11,16,58,22.90
2015,09,11,16,59,22.90
2015,09,11,17,00,22.90
2015,09,11,17,01,22.90
2015,09,11,17,02,22.90
2015,09,11,17,03,22.90
2015,09,11,17,04,22.90
2015,09,11,17,05,22.90
2015,09,11,17,06,22.90
2015,09,11,17,07,22.90
2015,09,11,17,08,22.90
2015,09,11,17,09,22.90
2015,09,11,17,10,22.90
2015,09,11,17,11,22.90
2015,09,11,17,12,22.90
2015,09,11,17,13,23.00
2015,09,11,17,14,23.00
2015,09,11,17,15,23.00
2015,09,11,17,16,23.00
2015,09,11,17,17,23.00
2015,09,11,17,18,23.00
2015,09,11,17,19,23.00